Location: El Carrer d�Abaix
(41.5797°N, 2.1791°E)
Time: 08:49:28
(UTC+00:00)

Daily predictions for brighter satellites

Satellite Brightness Start Highest point End
(mag) Time Altitude Azimuth Time Altitude Azimuth Time Altitude Azimuth
CZ-4B R/B 4.3 16:48:40 10° ESE 16:52:33 21° ENE 16:56:25 10° NNE
CZ-2D R/B 4.4 16:51:39 10° ESE 16:54:39 22° ENE 16:57:38 10° NNE
Cosmos 1092 Rocket 4.0 16:48:17 10° N 16:54:40 81° E 17:00:59 10° S
Cosmos 1898 Rocket 4.2 16:49:39 10° NNW 16:54:49 60° WSW 16:59:54 10° S
ATLAS CENTAUR R/B 3.9 16:45:16 10° WSW 16:56:21 53° NW 17:00:54 10° NNE
Cosmos 1939 Rocket 3.0 16:53:10 10° SSE 16:57:11 54° ENE 17:01:09 10° N
USA 267 3.3 16:51:35 10° NE 16:58:11 85° SE 17:04:43 10° SW
Meteor 2-21 4.4 16:52:11 10° N 16:58:14 65° E 17:04:12 10° SSE
Cosmos 1151 Rocket 3.5 16:55:38 10° SSE 16:59:41 41° E 17:03:48 10° NNE
Cosmos 1782 2.8 16:57:46 10° S 17:01:46 88° E 17:05:45 10° N
APEX 4.5 16:58:51 10° SSE 17:01:52 21° ESE 17:04:23 11° ENE
Cosmos 1633 Rocket 3.7 16:59:13 10° N 17:03:13 33° ENE 17:07:11 10° SE
COSMO-SKYMED 1 4.0 17:00:21 10° NE 17:03:30 19° E 17:06:37 10° SE
Cosmos 1666 3.2 17:01:31 10° N 17:04:56 35° ENE 17:08:21 10° SE
Cosmos 2360 Rocket 3.9 17:03:57 10° NNE 17:06:19 12° NE 17:08:17 11° ENE
Cosmos 1900 4.3 17:01:35 10° SSW 17:06:24 70° ESE 17:11:17 10° NE
ISS -3.7 17:03:29 10° NW 17:06:52 83° SW 17:10:15 10° SE
NOAA 12 4.3 17:04:23 10° S 17:09:43 78° WSW 17:15:03 10° NNW
SL-08 R/B 4.5 17:06:35 10° N 17:11:00 43° WNW 17:15:20 10° SW
Cosmos 1818 3.9 17:07:16 10° NNW 17:12:31 43° NE 17:17:39 10° ESE
CZ-2C R/B 2.8 17:11:25 10° SW 17:15:11 29° S 17:18:53 10° ESE
Cosmos 2279 Rocket 4.0 17:09:30 10° S 17:15:36 62° E 17:21:42 10° NNE
Cosmos 2142 Rocket 4.5 17:10:27 10° S 17:16:32 67° E 17:22:43 10° NNE
Cosmos 841 Rocket 4.2 17:11:49 10° SW 17:16:51 53° WNW 17:21:53 10° N
Meteor 2-14 Rocket 4.5 17:11:23 10° N 17:17:31 87° W 17:23:35 10° S
ATLAS 5 CENTAUR R/B 3.4 17:12:47 10° NNW 17:17:49 20° NNE 17:19:39 15° NE
USA 307 4.4 17:18:16 10° NNW 17:21:33 21° NNE 17:23:33 16° NE
CZ-4C R/B 3.0 17:16:17 10° NNW 17:23:43 79° NE 17:32:18 10° SE
Lacrosse 5 rocket 1.7 17:21:36 10° NNW 17:25:22 41° NE 17:28:57 12° ESE
Cosmos 2208 Rocket 4.0 17:20:49 10° SSW 17:26:12 78° ESE 17:31:40 10° NNE
Cosmos 372 Rocket 4.4 17:21:37 10° NNW 17:26:50 69° WSW 17:32:02 10° S
AQUARIUS 4.2 17:23:59 10° SSE 17:28:28 89° W 17:32:58 10° NNW
Tiangong 3.3 17:26:45 10° S 17:28:46 16° SSE 17:30:10 13° ESE
Cosmos 2322 Rocket 3.1 17:24:52 10° N 17:29:42 27° NE 17:34:31 10° ESE
Cosmos 1328 Rocket 3.5 17:25:19 10° S 17:29:42 64° E 17:34:06 10° NNE
USA 234 3.4 17:23:58 10° ESE 17:30:16 52° NNE 17:36:34 10° NW
Cosmos 2150 Rocket 4.4 17:26:55 10° N 17:31:48 40° ENE 17:36:43 10° SE
Cosmos 1666 Rocket 3.5 17:28:23 10° N 17:32:49 88° ENE 17:37:12 10° S
Cosmos 1980 Rocket 2.7 17:27:31 10° NNW 17:33:07 63° WSW 17:38:38 10° S
CORIOLIS 4.3 17:28:30 10° SSE 17:33:54 81° WSW 17:39:22 10° NNW
Cosmos 1867 4.2 17:30:17 10° S 17:35:14 37° ESE 17:38:27 20° ENE
Cosmos 1812 3.2 17:31:47 10° SSW 17:35:35 61° W 17:39:24 10° N
Cosmos 1470 Rocket 3.9 17:32:08 10° N 17:36:26 45° ENE 17:40:43 10° SSE
Cosmos 1544 3.8 17:33:13 10° NNE 17:36:28 30° ENE 17:39:41 10° SE
PSLV R/B 3.5 17:32:56 10° SSE 17:36:36 80° ENE 17:40:22 10° N
X-37B 0.4 17:33:50 10° WSW 17:36:41 64° SSE 17:37:49 32° E
H-2A R/B 1.9 17:32:14 10° SSE 17:37:19 66° ENE 17:42:17 10° N
DEBRIS 3.7 17:35:23 10° S 17:37:27 25° SE 17:38:35 21° E
Cosmos 1125 Rocket 3.8 17:33:03 10° N 17:38:03 42° ENE 17:43:02 10° SE
Okean O Rocket 2.2 17:35:10 10° SE 17:39:13 36° ENE 17:43:17 10° N
Meteor 2-8 Rocket 4.4 17:33:25 10° S 17:39:31 72° E 17:45:40 10° NNE
Meteor 1-10 Rocket 4.3 17:34:05 10° S 17:39:42 56° E 17:45:13 10° NNE
Meteor 1-11 Rocket 4.1 17:38:14 10° N 17:43:35 42° ENE 17:49:02 10° SE
USA 308 4.1 17:40:53 10° NW 17:44:27 25° NNE 17:45:22 23° NE
ARGOS 3.3 17:44:00 10° SE 17:49:13 51° ENE 17:54:26 10° N
Cosmos 2082 Rocket 3.6 17:45:04 10° WSW 17:50:13 35° WNW 17:55:23 10° N
SL-16 R/B 2.3 17:45:01 10° NNW 17:50:33 50° ENE 17:56:01 10° SE
SKYMED 2 3.5 17:47:47 12° NNE 17:51:49 64° ESE 17:56:06 10° S
SMAP 4.4 17:48:22 10° S 17:52:46 42° W 17:57:11 10° NNW
deb Chang Zheng 4 3.5 17:50:30 10° SSE 17:54:44 60° ENE 17:58:59 10° N
USA 305 3.6 18:05:03 10° NW 18:08:52 36° NNE 18:08:52 36° NNE
Cosmos 2333 Rocket 3.9 18:05:56 10° N 18:08:05 17° NNE 18:08:05 17° NNE
Cosmos 1356 Rocket 3.3 18:06:53 10° N 18:11:07 70° E 18:15:22 10° SSE
CZ-2C R/B 2.6 18:07:48 10° N 18:12:59 79° WNW 18:18:09 10° SSW
Aureole 3 Rocket 3.4 18:11:44 10° S 18:16:02 66° E 18:22:07 10° NNE
Cosmos 1515 Rocket 3.7 18:12:25 10° SSW 18:16:51 72° W 18:20:26 15° N
Cosmos 2219 Rocket 4.2 18:14:04 10° N 18:15:05 13° NNE 18:15:05 13° NNE
Cosmos 44 Rocket 3.9 18:13:46 10° NW 18:18:32 55° WSW 18:23:08 10° SSE
Cosmos 1655 Rocket 4.0 18:12:46 10° N 18:19:12 85° W 18:25:31 10° S
Cosmos 921 Rocket 4.2 18:15:34 10° SW 18:19:31 40° WNW 18:22:46 15° N
Cosmos 2228 Rocket 4.4 18:19:39 10° SSE 18:21:41 25° SSE 18:21:41 25° SSE
CZ-4 R/B 4.5 18:19:53 10° S 18:24:00 77° WSW 18:28:09 10° NNW
CZ-4B R/B 3.8 18:27:25 10° S 18:32:42 55° W 18:37:56 10° NNW
COSMO-SKYMED 1 3.9 18:36:23 14° N 18:39:46 37° WNW 18:43:46 10° SW
USA 267 4.3 18:37:47 25° NNE 18:40:46 37° NNW 18:46:36 10° W
USA 306 4.0 18:37:14 10° NW 18:39:52 35° NNW 18:39:52 35° NNW
Landsat 5 4.2 18:41:37 40° NW 18:42:26 47° WNW 18:46:11 10° SW
Meteor 1-27 Rocket 3.9 18:37:16 10° SSW 18:42:45 69° WNW 18:46:30 21° N
Genesis I 4.4 18:40:45 10° SSW 18:43:13 38° SSW 18:43:13 38° SSW
Cosmos 1833 4.1 18:40:00 10° SSW 18:45:04 64° SE 18:45:04 64° SE
Cosmos 2360 Rocket 2.5 18:45:44 10° NNW 18:50:08 52° N 18:50:08 52° N
CZ-2C R/B 3.0 18:50:29 10° WSW 18:53:23 29° SSW 18:53:23 29° SSW
Cosmos 2237 4.2 18:49:08 10° NNW 18:54:52 81° WSW 18:55:53 61° S
DMSP B5D2-2 4.1 19:00:33 74° W 19:00:33 74° W 19:05:41 10° SSW
Lacrosse 5 rocket 3.3 19:00:56 10° WNW 19:04:19 26° SW 19:04:38 25° SW
Tiangong 4.5 19:02:02 10° WSW 19:02:20 12° WSW 19:02:20 12° WSW
USA 234 3.9 19:10:00 28° SSE 19:13:15 50° SW 19:19:36 10° WNW
Cosmos 2322 Rocket 3.1 19:08:31 10° NW 19:13:57 47° WSW 19:17:09 23° SSW
Okean O Rocket 4.0 19:12:13 10° SW 19:15:38 21° W 19:19:03 10° NW
ATLAS 2AS CENTAUR R/B 4.4 19:15:44 10° NNW 19:18:45 20° N 19:18:45 20° N
SL-16 R/B 4.3 19:29:53 10° NW 19:34:15 23° W 19:38:36 10° SSW
